• In United Kingdom
  • List of Countries
  • For 7 days
  • Water Temperature
  • Satellite Maps
  • Weather Map
  • Weather Widgets
  • user-avatar
    Login

    Hourly Weather Sevran

    Today, 22 November, Wednesday

    Time Temperature Precipitation Wind Pressure Humidity
    00:00 +7°C° 0 mm 4 mps 755 mmHg 90%
    01:00 +7°C° 0 mm 4 mps 754 mmHg 90%
    02:00 +7°C° 0 mm 4 mps 754 mmHg 91%
    03:00 +7°C° 0 mm 4 mps 754 mmHg 91%
    04:00 +6°C° 0 mm 4 mps 753 mmHg 90%
    05:00 +6°C° 0 mm 4 mps 753 mmHg 90%
    06:00 +6°C° 0 mm 4 mps 753 mmHg 89%
    07:00 +6°C° 0 mm 4 mps 752 mmHg 85%
    08:00 +7°C° 0 mm 5 mps 752 mmHg 80%
    09:00 +7°C° 0 mm 5 mps 752 mmHg 76%
    10:00 +8°C° 0 mm 5 mps 752 mmHg 69%
    11:00 +10°C° 0 mm 5 mps 751 mmHg 63%
    12:00 +12°C° 0 mm 5 mps 751 mmHg 57%
    13:00 +12°C° 0 mm 5 mps 750 mmHg 56%
    14:00 +12°C° 0 mm 5 mps 749 mmHg 55%
    15:00 +12°C° 0 mm 5 mps 749 mmHg 54%
    16:00 +12°C° 0 mm 5 mps 748 mmHg 55%
    17:00 +10°C° 0 mm 5 mps 748 mmHg 56%
    18:00 +10°C° 0 mm 6 mps 748 mmHg 57%
    19:00 +10°C° 0 mm 6 mps 747 mmHg 58%
    20:00 +10°C° 0 mm 6 mps 747 mmHg 58%
    21:00 +10°C° 0 mm 6 mps 747 mmHg 58%
    22:00 +10°C° 0 mm 6 mps 747 mmHg 59%
    23:00 +10°C° 0 mm 7 mps 746 mmHg 60%

    Tomorrow, 23 November, Thursday

    Time Temperature Precipitation Wind Pressure Humidity
    00:00 +10°C° 0 mm 7 mps 746 mmHg 61%
    01:00 +11°C° 0 mm 8 mps 746 mmHg 60%
    02:00 +12°C° 0 mm 8 mps 745 mmHg 60%
    03:00 +12°C° 0 mm 9 mps 745 mmHg 59%
    04:00 +12°C° 0 mm 9 mps 745 mmHg 60%
    05:00 +13°C° 0 mm 9 mps 746 mmHg 62%
    06:00 +13°C° 0 mm 9 mps 746 mmHg 63%
    07:00 +13°C° 0 mm 9 mps 747 mmHg 65%
    08:00 +13°C° 0 mm 9 mps 747 mmHg 66%
    09:00 +13°C° 0 mm 9 mps 748 mmHg 68%
    10:00 +13°C° 0.1 mm 9 mps 748 mmHg 69%
    11:00 +15°C° 0.1 mm 8 mps 749 mmHg 70%
    12:00 +15°C° 0.1 mm 8 mps 749 mmHg 71%
    13:00 +15°C° 0.2 mm 7 mps 750 mmHg 72%
    14:00 +15°C° 0.2 mm 6 mps 750 mmHg 73%
    15:00 +15°C° 0.2 mm 5 mps 751 mmHg 74%
    16:00 +14°C° 0.1 mm 5 mps 751 mmHg 77%
    17:00 +14°C° 0.1 mm 5 mps 752 mmHg 79%
    18:00 +13°C° 0.1 mm 4 mps 752 mmHg 82%
    19:00 +13°C° 0.1 mm 5 mps 752 mmHg 80%
    20:00 +13°C° 0.1 mm 6 mps 751 mmHg 78%
    21:00 +12°C° 0.1 mm 7 mps 751 mmHg 77%
    22:00 +14°C° 0 mm 7 mps 751 mmHg 74%
    23:00 +14°C° 0 mm 7 mps 751 mmHg 72%

    Day after tomorrow, 24 November, Friday

    Time Temperature Precipitation Wind Pressure Humidity
    00:00 +14°C° 0 mm 7 mps 751 mmHg 69%
    01:00 +14°C° 0.6 mm 6 mps 751 mmHg 72%
    02:00 +13°C° 0.6 mm 6 mps 751 mmHg 75%
    03:00 +13°C° 0.6 mm 6 mps 751 mmHg 78%
    04:00 +13°C° 0.6 mm 5 mps 751 mmHg 80%
    05:00 +12°C° 0.6 mm 5 mps 751 mmHg 82%
    06:00 +12°C° 0.6 mm 5 mps 751 mmHg 84%
    07:00 +12°C° 1.2 mm 5 mps 751 mmHg 86%
    08:00 +11°C° 1.2 mm 6 mps 751 mmHg 87%
    09:00 +11°C° 1.2 mm 6 mps 751 mmHg 89%
    10:00 +13°C° 1.3 mm 6 mps 751 mmHg 85%
    11:00 +13°C° 1.3 mm 6 mps 751 mmHg 81%
    12:00 +14°C° 1.3 mm 6 mps 751 mmHg 77%
    13:00 +14°C° 0 mm 6 mps 750 mmHg 77%
    14:00 +13°C° 0 mm 6 mps 750 mmHg 78%
    15:00 +13°C° 0 mm 5 mps 750 mmHg 78%
    16:00 +13°C° 0.4 mm 5 mps 750 mmHg 81%
    17:00 +13°C° 0.4 mm 5 mps 749 mmHg 83%
    18:00 +12°C° 0.4 mm 5 mps 749 mmHg 85%
    19:00 +13°C° 1.2 mm 5 mps 749 mmHg 86%
    20:00 +13°C° 1.2 mm 6 mps 748 mmHg 87%
    21:00 +13°C° 1.2 mm 6 mps 748 mmHg 88%
    22:00 +11°C° 1.2 mm 6 mps 748 mmHg 85%
    23:00 +11°C° 1.2 mm 7 mps 748 mmHg 83%

    25 November, Saturday

    Time Temperature Precipitation Wind Pressure Humidity
    00:00 +10°C° 1.2 mm 7 mps 747 mmHg 81%
    01:00 +9°C° 0.7 mm 7 mps 748 mmHg 79%
    02:00 +9°C° 0.7 mm 7 mps 748 mmHg 77%
    03:00 +8°C° 0.7 mm 7 mps 749 mmHg 75%
    04:00 +6°C° 0 mm 7 mps 750 mmHg 73%
    05:00 +5°C° 0 mm 6 mps 751 mmHg 72%
    06:00 +4°C° 0 mm 6 mps 752 mmHg 70%
    07:00 +5°C° 0 mm 6 mps 753 mmHg 69%
    08:00 +5°C° 0 mm 6 mps 754 mmHg 68%
    09:00 +5°C° 0 mm 6 mps 755 mmHg 66%
    10:00 +5°C° 0 mm 6 mps 756 mmHg 62%
    11:00 +7°C° 0 mm 6 mps 756 mmHg 57%
    12:00 +7°C° 0 mm 6 mps 757 mmHg 53%
    13:00 +7°C° 0.1 mm 6 mps 757 mmHg 54%
    14:00 +7°C° 0.1 mm 5 mps 757 mmHg 56%
    15:00 +6°C° 0.1 mm 5 mps 758 mmHg 57%
    16:00 +6°C° 0 mm 5 mps 758 mmHg 60%
    17:00 +5°C° 0 mm 5 mps 758 mmHg 64%
    18:00 +3°C° 0 mm 5 mps 758 mmHg 67%
    19:00 +3°C° 0 mm 5 mps 758 mmHg 69%
    20:00 +3°C° 0 mm 5 mps 759 mmHg 70%
    21:00 +3°C° 0 mm 5 mps 759 mmHg 72%
    22:00 +2°C° 0 mm 5 mps 759 mmHg 73%
    23:00 +3°C° 0 mm 4 mps 759 mmHg 75%

    26 November, Sunday

    Time Temperature Precipitation Wind Pressure Humidity
    00:00 +3°C° 0 mm 4 mps 760 mmHg 76%
    01:00 +3°C° 0 mm 4 mps 760 mmHg 76%
    02:00 +3°C° 0 mm 4 mps 760 mmHg 76%
    03:00 +1°C° 0 mm 4 mps 760 mmHg 77%
    04:00 +1°C° 0 mm 4 mps 760 mmHg 78%
    05:00 +1°C° 0 mm 4 mps 760 mmHg 79%
    06:00 +1°C° 0 mm 4 mps 760 mmHg 80%
    07:00 +1°C° 0 mm 4 mps 760 mmHg 79%
    08:00 +2°C° 0 mm 5 mps 761 mmHg 78%
    09:00 +2°C° 0 mm 5 mps 761 mmHg 77%
    10:00 +3°C° 0 mm 5 mps 761 mmHg 72%
    11:00 +5°C° 0 mm 5 mps 761 mmHg 68%
    12:00 +7°C° 0 mm 5 mps 761 mmHg 63%
    13:00 +6°C° 0 mm 5 mps 761 mmHg 64%
    14:00 +6°C° 0 mm 5 mps 761 mmHg 64%
    15:00 +6°C° 0 mm 5 mps 761 mmHg 65%
    16:00 +6°C° 0 mm 5 mps 761 mmHg 68%
    17:00 +5°C° 0 mm 4 mps 761 mmHg 71%
    18:00 +4°C° 0 mm 4 mps 761 mmHg 74%
    19:00 +4°C° 0 mm 4 mps 762 mmHg 76%
    20:00 +4°C° 0 mm 4 mps 762 mmHg 78%
    21:00 +4°C° 0 mm 4 mps 763 mmHg 79%
    22:00 +3°C° 0 mm 4 mps 763 mmHg 81%
    23:00 +3°C° 0 mm 4 mps 763 mmHg 83%

    27 November, Monday

    Time Temperature Precipitation Wind Pressure Humidity
    00:00 +3°C° 0 mm 3 mps 763 mmHg 85%
    01:00 +3°C° 0 mm 3 mps 763 mmHg 86%
    02:00 +2°C° 0 mm 3 mps 763 mmHg 87%
    03:00 +3°C° 0 mm 2 mps 763 mmHg 88%
    04:00 +3°C° 0 mm 2 mps 763 mmHg 88%
    05:00 +3°C° 0 mm 2 mps 763 mmHg 87%
    06:00 +3°C° 0 mm 2 mps 763 mmHg 87%
    07:00 +2°C° 0 mm 3 mps 763 mmHg 85%
    08:00 +3°C° 0 mm 3 mps 763 mmHg 82%
    09:00 +3°C° 0 mm 4 mps 763 mmHg 80%
    10:00 +4°C° 0 mm 4 mps 763 mmHg 75%
    11:00 +5°C° 0 mm 5 mps 762 mmHg 71%
    12:00 +6°C° 0 mm 5 mps 762 mmHg 66%
    13:00 +6°C° 0 mm 5 mps 761 mmHg 66%
    14:00 +6°C° 0 mm 5 mps 760 mmHg 66%
    15:00 +6°C° 0 mm 4 mps 759 mmHg 65%
    16:00 +5°C° 0 mm 4 mps 759 mmHg 69%
    17:00 +4°C° 0 mm 4 mps 758 mmHg 72%
    18:00 +4°C° 0 mm 4 mps 757 mmHg 75%
    19:00 +3°C° 0 mm 5 mps 757 mmHg 76%
    20:00 +3°C° 0 mm 5 mps 756 mmHg 77%
    21:00 +2°C° 0 mm 5 mps 755 mmHg 78%
    22:00 +2°C° 0 mm 5 mps 754 mmHg 76%
    23:00 +2°C° 0 mm 6 mps 753 mmHg 75%
    Show more